Location: Unspecified
(0.0000°N, 0.0000°E)
Time: 00:31:05
(UTC+00:00)

QIANFAN-31 - Pass Details

Date: 14 March 2026
Orbit: 1037 x 1049 km, 89.0° (Epoch: 14 April)

Event Time Altitude Azimuth Distance (km) Brightness Sun altitude
Rises 03:43:23 0° 46° (NE) 3,782 ? -36.4°
Reaches altitude 10° 03:48:52 10° 84° (E) 2,837 ? -35.1°
Maximum altitude 03:49:54 10° 94° (E) 2,808 ? -34.8°
Drops below altitude 10° 03:50:57 10° 103° (ESE) 2,839 ? -34.5°
Sets 03:56:24 0° 141° (SE) 3,800 ? -33.2°
